DELTA 1 DEB, 7032

Orbit data source: Space-Track

DELTA 1 DEB, 7032 is space debris in SSO originally from a launch on Tue, 06 Nov 1973 UTC launched from the Air Force Western Test Range (AFWTR). Debris objects in space refer to the collection of defunct objects orbiting the Earth. Examples of debris include non-operational satellites, rocket bodies, and fragments generated from explosions, collisions, or faulty payload assembly.

Loading next visibility...
Identifier
7032, 1973-086Y
Orbit
SSO
Country
Flag of USUS
Related business
Manufacturer
Unknown
Mission
Spacecraft
Bus & Motor
Unknown
Mass
Unknown
Launch date (UTC)
1973-11-06 (53 years ago)
Launch vehicle
Unknown
Launch site
Air Force Western Test Range (AFWTR)
Object type
Payload
Rocket body
Debris
Shape & HBR
Unknown shape, 1.7 m
Radar Cross Section
Large (>1 m²)

Expand to show TLE details & history
Last TLE update: 1 day ago

TLE from 1 day ago
0 DELTA 1 DEB
1 07032U 73086Y   26263.61919892 -.00000030  00000-0  12881-3 0  9997
2 07032 102.4238 274.1865 0029456 310.1967 165.7848 12.34783365382723
Epoch: 2026-09-20T14:51Z
TLE epoch observation values (Epoch: 2026-09-20T14:51:38.786Z)
Latitude
61.4039°
Longitude
-104.52249°
Altitude
1,561.666 km
Speed
7.082 km/s
True Right ascension
07h 51m 35s
True Declination
61° 16' 26"
Sunlit
Object was in daylight at epoch
Visualization orbit readout
Latitude
Unknown
Longitude
Unknown
Altitude
Unknown
Speed
Unknown
Apparent Right ascension
Unknown
Apparent Declination
Unknown
Sunlit
N/A
Visualization observer readout
Local Sidereal Time
12:52:33
Azimuth
Unknown
Elevation
Unknown
Doppler factor
Unknown
Orbital elements
Apogee altitude
1,549.686 km
Perigee altitude
1,503.118 km
Semi-major axis
7,904.539 km
Eccentricity
0.00295
Inclination
102.4238°
RAAN
274.1865°
Arg. of periapsis
310.1967°
True anomaly
165.86739°
Mean anomaly
165.7848°
Eccentric anomaly
165.82613°
Mean motion
3.08836 °/min
Orbital period
116.57 mins
BSTAR
0.00012881
Loading maneuver chart data...
Computing Atmospheric mass density...
Loading historical data...
Loading historical data...
Loading historical data...
Loading historical data...
Loading historical data...
Loading historical data...
Loading historical data...

Documentation

Showing up to 5 results
|